When you browse on this site, cookies collect data to enhance your experience and personalize the content and advertising you see.
Visit our Privacy Policy to learn more. By continuing to use the site, you agree to this use of cookies and data.
  • En España
  • Lista de países
  • Para 7 días
  • Temperatura del agua
  • El tiempo en el mapa
  • Informadores
  • user-avatar
    Iniciar sesión

    Tiempo cada hora Rusino

    Hoy, 21 Septiembre, Sábado

    Tiempo Temperatura Precipitaciones Viento Presión Humedad
    00:00 +3°C° 0 mm 2 mps 744 mmHg 92%
    01:00 +3°C° 0 mm 2 mps 744 mmHg 93%
    02:00 +3°C° 0 mm 2 mps 745 mmHg 95%
    03:00 +2°C° 0 mm 2 mps 745 mmHg 95%
    04:00 +2°C° 0 mm 2 mps 745 mmHg 95%
    05:00 +2°C° 0 mm 2 mps 745 mmHg 96%
    06:00 +2°C° 0 mm 3 mps 745 mmHg 92%
    07:00 +3°C° 0 mm 3 mps 745 mmHg 88%
    08:00 +4°C° 0 mm 3 mps 746 mmHg 84%
    09:00 +5°C° 0 mm 3 mps 746 mmHg 77%
    10:00 +8°C° 0 mm 3 mps 745 mmHg 70%
    11:00 +8°C° 0 mm 4 mps 745 mmHg 63%
    12:00 +8°C° 0 mm 4 mps 745 mmHg 60%
    13:00 +8°C° 0 mm 4 mps 745 mmHg 57%
    14:00 +8°C° 0 mm 4 mps 745 mmHg 56%
    15:00 +8°C° 0 mm 3 mps 745 mmHg 59%
    16:00 +8°C° 0 mm 3 mps 744 mmHg 62%
    17:00 +7°C° 0 mm 2 mps 744 mmHg 66%
    18:00 +7°C° 0 mm 3 mps 743 mmHg 67%
    19:00 +5°C° 0 mm 4 mps 743 mmHg 68%
    20:00 +5°C° 0 mm 4 mps 742 mmHg 69%
    21:00 +5°C° 0.4 mm 5 mps 742 mmHg 77%
    22:00 +3°C° 0.4 mm 6 mps 741 mmHg 84%
    23:00 +3°C° 0.4 mm 6 mps 740 mmHg 92%

    Mañana, 22 Septiembre, Domingo

    Tiempo Temperatura Precipitaciones Viento Presión Humedad
    00:00 +4°C° 0.5 mm 6 mps 739 mmHg 93%
    01:00 +4°C° 0.5 mm 7 mps 738 mmHg 93%
    02:00 +4°C° 0.5 mm 7 mps 737 mmHg 94%
    03:00 +5°C° 0.6 mm 6 mps 736 mmHg 94%
    04:00 +7°C° 0.6 mm 5 mps 735 mmHg 95%
    05:00 +7°C° 0.6 mm 5 mps 735 mmHg 96%
    06:00 +8°C° 0.3 mm 6 mps 735 mmHg 93%
    07:00 +8°C° 0.3 mm 7 mps 735 mmHg 89%
    08:00 +7°C° 0.3 mm 8 mps 735 mmHg 86%
    09:00 +7°C° 0 mm 8 mps 735 mmHg 80%
    10:00 +8°C° 0 mm 9 mps 736 mmHg 73%
    11:00 +8°C° 0 mm 10 mps 736 mmHg 67%
    12:00 +8°C° 0.1 mm 9 mps 736 mmHg 66%
    13:00 +7°C° 0.1 mm 9 mps 737 mmHg 65%
    14:00 +7°C° 0.1 mm 8 mps 737 mmHg 64%
    15:00 +6°C° 0.1 mm 8 mps 737 mmHg 66%
    16:00 +6°C° 0.1 mm 7 mps 738 mmHg 67%
    17:00 +5°C° 0.1 mm 6 mps 738 mmHg 68%
    18:00 +4°C° 0 mm 6 mps 739 mmHg 71%
    19:00 +3°C° 0 mm 5 mps 739 mmHg 74%
    20:00 +2°C° 0 mm 5 mps 740 mmHg 76%
    21:00 +1°C° 0 mm 5 mps 741 mmHg 79%
    22:00 +1°C° 0 mm 5 mps 741 mmHg 81%
    23:00 0°C° 0 mm 4 mps 742 mmHg 83%

    Pasado mañana, 23 Septiembre, Lunes

    Tiempo Temperatura Precipitaciones Viento Presión Humedad
    00:00 0°C° 0 mm 4 mps 742 mmHg 85%
    01:00 0°C° 0 mm 4 mps 743 mmHg 88%
    02:00 -1°C° 0 mm 4 mps 744 mmHg 90%
    03:00 -1°C° 0 mm 4 mps 744 mmHg 91%
    04:00 -1°C° 0 mm 4 mps 744 mmHg 93%
    05:00 -2°C° 0 mm 4 mps 745 mmHg 94%
    06:00 -1°C° 0 mm 4 mps 745 mmHg 90%
    07:00 0°C° 0 mm 4 mps 746 mmHg 86%
    08:00 +1°C° 0 mm 5 mps 746 mmHg 81%
    09:00 +1°C° 0 mm 5 mps 746 mmHg 77%
    10:00 +2°C° 0 mm 5 mps 747 mmHg 73%
    11:00 +4°C° 0 mm 4 mps 747 mmHg 69%
    12:00 +5°C° 0 mm 5 mps 747 mmHg 65%
    13:00 +6°C° 0 mm 5 mps 747 mmHg 61%
    14:00 +7°C° 0 mm 5 mps 747 mmHg 58%
    15:00 +6°C° 0 mm 4 mps 747 mmHg 61%
    16:00 +6°C° 0 mm 4 mps 747 mmHg 64%
    17:00 +5°C° 0 mm 3 mps 747 mmHg 67%
    18:00 +4°C° 0 mm 3 mps 747 mmHg 70%
    19:00 +3°C° 0 mm 3 mps 747 mmHg 73%
    20:00 +2°C° 0 mm 3 mps 748 mmHg 76%
    21:00 +1°C° 0 mm 3 mps 748 mmHg 79%
    22:00 +1°C° 0 mm 3 mps 748 mmHg 81%
    23:00 0°C° 0 mm 3 mps 748 mmHg 84%

    24 Septiembre, Martes

    Tiempo Temperatura Precipitaciones Viento Presión Humedad
    00:00 0°C° 0 mm 3 mps 748 mmHg 85%
    01:00 0°C° 0 mm 3 mps 748 mmHg 87%
    02:00 +1°C° 0 mm 2 mps 748 mmHg 88%
    03:00 -1°C° 0 mm 2 mps 748 mmHg 89%
    04:00 -1°C° 0 mm 2 mps 748 mmHg 90%
    05:00 -1°C° 0 mm 2 mps 748 mmHg 91%
    06:00 +1°C° 0 mm 2 mps 748 mmHg 86%
    07:00 +2°C° 0 mm 3 mps 748 mmHg 82%
    08:00 +3°C° 0 mm 3 mps 748 mmHg 78%
    09:00 +4°C° 0 mm 3 mps 748 mmHg 74%
    10:00 +5°C° 0 mm 3 mps 748 mmHg 70%
    11:00 +7°C° 0 mm 3 mps 748 mmHg 65%
    12:00 +7°C° 0.1 mm 3 mps 748 mmHg 64%
    13:00 +7°C° 0.1 mm 4 mps 748 mmHg 64%
    14:00 +7°C° 0.1 mm 4 mps 748 mmHg 63%
    15:00 +7°C° 0 mm 3 mps 747 mmHg 66%
    16:00 +5°C° 0 mm 3 mps 747 mmHg 70%
    17:00 +6°C° 0 mm 2 mps 747 mmHg 74%
    18:00 +4°C° 0 mm 2 mps 747 mmHg 76%
    19:00 +4°C° 0 mm 1 mps 747 mmHg 78%
    20:00 +3°C° 0 mm 1 mps 748 mmHg 79%
    21:00 +3°C° 0 mm 1 mps 748 mmHg 78%
    22:00 +3°C° 0 mm 1 mps 748 mmHg 77%
    23:00 +2°C° 0 mm 0 mps 748 mmHg 75%

    25 Septiembre, Miércoles

    Tiempo Temperatura Precipitaciones Viento Presión Humedad
    00:00 +3°C° 0 mm 1 mps 748 mmHg 75%
    01:00 +3°C° 0 mm 1 mps 748 mmHg 74%
    02:00 +3°C° 0 mm 1 mps 748 mmHg 74%
    03:00 +3°C° 0 mm 1 mps 748 mmHg 75%
    04:00 +2°C° 0 mm 1 mps 748 mmHg 77%
    05:00 +2°C° 0 mm 1 mps 748 mmHg 78%
    06:00 +3°C° 0 mm 1 mps 748 mmHg 74%
    07:00 +5°C° 0 mm 1 mps 748 mmHg 70%
    08:00 +6°C° 0 mm 1 mps 748 mmHg 66%
    09:00 +7°C° 0 mm 1 mps 748 mmHg 62%
    10:00 +9°C° 0 mm 1 mps 748 mmHg 57%
    11:00 +9°C° 0 mm 2 mps 749 mmHg 52%
    12:00 +9°C° 0 mm 2 mps 748 mmHg 51%
    13:00 +10°C° 0 mm 2 mps 748 mmHg 51%
    14:00 +10°C° 0 mm 2 mps 748 mmHg 50%
    15:00 +9°C° 0 mm 2 mps 747 mmHg 54%
    16:00 +8°C° 0 mm 2 mps 747 mmHg 59%
    17:00 +8°C° 0 mm 1 mps 747 mmHg 64%
    18:00 +7°C° 0 mm 2 mps 747 mmHg 65%
    19:00 +6°C° 0 mm 2 mps 747 mmHg 67%
    20:00 +4°C° 0 mm 3 mps 747 mmHg 69%
    21:00 +4°C° 0 mm 3 mps 747 mmHg 67%
    22:00 +5°C° 0 mm 4 mps 747 mmHg 66%
    23:00 +5°C° 0 mm 4 mps 747 mmHg 64%

    26 Septiembre, Jueves

    Tiempo Temperatura Precipitaciones Viento Presión Humedad
    00:00 +5°C° 0 mm 4 mps 746 mmHg 63%
    01:00 +5°C° 0 mm 5 mps 746 mmHg 61%
    02:00 +5°C° 0 mm 5 mps 746 mmHg 60%
    03:00 +5°C° 0 mm 5 mps 746 mmHg 58%
    04:00 +5°C° 0 mm 5 mps 745 mmHg 57%
    05:00 +4°C° 0 mm 6 mps 745 mmHg 56%
    06:00 +5°C° 0 mm 6 mps 745 mmHg 55%
    07:00 +7°C° 0 mm 6 mps 744 mmHg 55%
    08:00 +8°C° 0 mm 7 mps 744 mmHg 55%
    09:00 +9°C° 0 mm 7 mps 744 mmHg 56%
    10:00 +10°C° 0 mm 6 mps 744 mmHg 57%
    11:00 +11°C° 0 mm 6 mps 744 mmHg 58%
    12:00 +12°C° 0.1 mm 5 mps 743 mmHg 62%
    13:00 +12°C° 0.1 mm 4 mps 743 mmHg 67%
    14:00 +12°C° 0.1 mm 3 mps 742 mmHg 71%
    15:00 +12°C° 0 mm 3 mps 742 mmHg 72%
    16:00 +12°C° 0 mm 3 mps 742 mmHg 74%
    17:00 +12°C° 0 mm 3 mps 742 mmHg 75%
    18:00 +12°C° 0.1 mm 3 mps 742 mmHg 77%
    19:00 +12°C° 0.1 mm 3 mps 741 mmHg 78%
    20:00 +11°C° 0.1 mm 3 mps 741 mmHg 80%
    21:00 +11°C° 0.1 mm 3 mps 741 mmHg 82%
    22:00 +11°C° 0.1 mm 3 mps 741 mmHg 84%
    23:00 +11°C° 0.1 mm 3 mps 740 mmHg 86%
    Mostrar más